User: anonymous
Location: South Range
(44.4886°N, 65.7879°W)
Time: 06:34:28
(UTC-03:00)
Language:

Iridium 56 - Orbit

View from above orbital plane
View from above orbital plane
View from above satellite
View from above satellite

Ground track
Ground track

The orbit data is extracted from the following two-line orbital elements,

1 25170U 98010B   14259.47485890  .00000158  00000-0  49425-4 0  7236
2 25170 086.3951 050.4114 0002237 105.8467 334.3752 14.34230239867750
Epoch (UTC): 16 September 2014 11:23:47
Eccentricity: 0.0002237
inclination: 86.3951°
perigee height: 776 km
apogee height: 779 km
right ascension of ascending node: 50.4114°
argument of perigee: 105.8467°
revolutions per day: 14.34230239
mean anomaly at epoch: 334.3752°
orbit number at epoch: 86775

The dashed part of the orbit path shows where the satellite is in the earth's shadow,  

DLR